LOT2PA KLAX-EPWA

Flight info

Callsign LOT2PA
Flight time N/A
Altitude 37000
Route ORCKA5 LAS Q70 BLIPP Q842 WINEN DCT DTA DCT BOY DCT MLS DCT KAIIN DCT 55N089W/N0502F390 58N080W DCT JELCO DCT GRIBS/M085F390 DCT KETLA DCT 63N050W 64N040W/M085F410 64N030W 63N020W 62N010W DCT GUNPA/N0492F410 DCT NERDO DCT KULUD DCT AMROR DCT NASOK N195 SORIX
Aircraft B788/H-SDE1E2E3FGHIJ2J3J4J5M1RWXY/LB1D1

Departure

Time 2026-05-07 00:46
Airport Los Angeles International Airport (KLAX)

Arrival

Time N/A
Airport Warsaw Chopin Airport (EPWA)
Time Latitude Longitude Altitude Speed Heading
2026-05-06 23:42 33.94517 -118.41173 139 ft 0 kts 83°
2026-05-07 00:28 33.94516 -118.41187 139 ft 2 kts 81°
2026-05-07 00:28 33.94513 -118.41206 139 ft 2 kts 77°
2026-05-07 00:28 33.94509 -118.41224 139 ft 2 kts 71°
2026-05-07 00:29 33.94503 -118.41242 139 ft 2 kts 61°
2026-05-07 00:29 33.94494 -118.41257 139 ft 2 kts 45°
2026-05-07 00:30 33.94458 -118.41268 139 ft 2 kts 353°
2026-05-07 00:30 33.94445 -118.41266 139 ft 0 kts 353°
2026-05-07 00:31 33.94446 -118.41266 139 ft 0 kts 353°
2026-05-07 00:33 33.94450 -118.41266 139 ft 2 kts 353°
2026-05-07 00:34 33.94475 -118.41270 139 ft 4 kts 353°
2026-05-07 00:34 33.94505 -118.41276 139 ft 3 kts 342°
2026-05-07 00:34 33.94511 -118.41285 139 ft 1 kts 290°
2026-05-07 00:34 33.94509 -118.41301 139 ft 5 kts 265°
2026-05-07 00:35 33.94494 -118.41337 139 ft 4 kts 215°
2026-05-07 00:35 33.94452 -118.41348 139 ft 9 kts 180°
2026-05-07 00:35 33.94390 -118.41342 139 ft 9 kts 175°
2026-05-07 00:35 33.94329 -118.41335 139 ft 8 kts 166°
2026-05-07 00:36 33.94273 -118.41324 139 ft 8 kts 171°
2026-05-07 00:36 33.94215 -118.41315 139 ft 8 kts 173°
2026-05-07 00:36 33.94156 -118.41307 139 ft 8 kts 173°
2026-05-07 00:36 33.94098 -118.41299 139 ft 9 kts 173°
2026-05-07 00:37 33.94038 -118.41291 139 ft 9 kts 172°
2026-05-07 00:37 33.93978 -118.41282 139 ft 9 kts 171°
2026-05-07 00:37 33.93916 -118.41271 139 ft 9 kts 172°
2026-05-07 00:37 33.93854 -118.41261 139 ft 9 kts 172°
2026-05-07 00:38 33.93792 -118.41251 139 ft 9 kts 166°
2026-05-07 00:38 33.93763 -118.41194 139 ft 9 kts 98°
2026-05-07 00:38 33.93765 -118.41120 139 ft 9 kts 85°
2026-05-07 00:38 33.93771 -118.41043 139 ft 10 kts 84°
2026-05-07 00:39 33.93779 -118.40962 139 ft 10 kts 83°
2026-05-07 00:39 33.93788 -118.40876 139 ft 11 kts 83°
2026-05-07 00:39 33.93798 -118.40785 139 ft 11 kts 83°
2026-05-07 00:39 33.93807 -118.40689 139 ft 12 kts 83°
2026-05-07 00:40 33.93817 -118.40588 139 ft 12 kts 83°
2026-05-07 00:40 33.93827 -118.40474 139 ft 16 kts 83°
2026-05-07 00:40 33.93843 -118.40334 139 ft 17 kts 84°
2026-05-07 00:40 33.93860 -118.40187 139 ft 18 kts 71°
2026-05-07 00:41 33.93874 -118.40044 139 ft 17 kts 83°
2026-05-07 00:41 33.93888 -118.39898 139 ft 18 kts 83°
2026-05-07 00:41 33.93903 -118.39749 139 ft 18 kts 83°
2026-05-07 00:41 33.93919 -118.39596 139 ft 19 kts 83°
2026-05-07 00:42 33.93935 -118.39441 139 ft 19 kts 83°
2026-05-07 00:42 33.93952 -118.39282 139 ft 19 kts 83°
2026-05-07 00:42 33.93968 -118.39127 139 ft 19 kts 83°
2026-05-07 00:42 33.93984 -118.38965 139 ft 20 kts 83°
2026-05-07 00:43 33.94001 -118.38798 139 ft 20 kts 83°
2026-05-07 00:43 33.94018 -118.38631 139 ft 20 kts 83°
2026-05-07 00:43 33.94035 -118.38461 139 ft 20 kts 82°
2026-05-07 00:43 33.94053 -118.38295 139 ft 18 kts 83°
2026-05-07 00:44 33.94063 -118.38196 139 ft 9 kts 83°
2026-05-07 00:44 33.94071 -118.38118 139 ft 10 kts 86°
2026-05-07 00:44 33.94049 -118.38049 139 ft 8 kts 133°
2026-05-07 00:44 33.93997 -118.38037 139 ft 6 kts 212°
2026-05-07 00:45 33.93978 -118.38083 139 ft 9 kts 258°
2026-05-07 00:45 33.93962 -118.38237 139 ft 33 kts 262°
2026-05-07 00:45 33.93907 -118.38743 139 ft 91 kts 262°
2026-05-07 00:45 33.93805 -118.39719 139 ft 146 kts 263°
2026-05-07 00:46 33.93674 -118.41077 442 ft 166 kts 263°
2026-05-07 00:46 33.93549 -118.42459 1232 ft 170 kts 263°
2026-05-07 00:46 33.93378 -118.43935 1887 ft 184 kts 259°
2026-05-07 00:46 33.93181 -118.45464 2563 ft 186 kts 260°
2026-05-07 00:47 33.92821 -118.46960 3086 ft 189 kts 253°
2026-05-07 00:47 33.92350 -118.48480 3513 ft 197 kts 252°
2026-05-07 00:47 33.91746 -118.49987 3851 ft 210 kts 235°
2026-05-07 00:47 33.90478 -118.50956 4094 ft 227 kts 194°
2026-05-07 00:48 33.88882 -118.50835 4405 ft 238 kts 156°
2026-05-07 00:48 33.87636 -118.49641 4860 ft 234 kts 119°
2026-05-07 00:48 33.87201 -118.47809 5406 ft 223 kts 83°
2026-05-07 00:48 33.87734 -118.46123 5878 ft 219 kts 48°
2026-05-07 00:49 33.89024 -118.45160 6317 ft 222 kts 15°
2026-05-07 00:49 33.90503 -118.44720 6856 ft 222 kts 24°
2026-05-07 00:49 33.91901 -118.43846 7309 ft 226 kts 21°
2026-05-07 00:49 33.93471 -118.43484 7726 ft 232 kts 11°
2026-05-07 00:50 33.94925 -118.42665 8018 ft 240 kts 42°
2026-05-07 00:50 33.95882 -118.40972 8485 ft 244 kts 58°
2026-05-07 00:50 33.96696 -118.39193 8964 ft 246 kts 59°
2026-05-07 00:50 33.97515 -118.37380 9410 ft 249 kts 59°
2026-05-07 00:51 33.98355 -118.35516 9849 ft 253 kts 59°
2026-05-07 00:51 33.99195 -118.33645 10302 ft 257 kts 59°
2026-05-07 00:51 34.00057 -118.31726 10833 ft 261 kts 59°
2026-05-07 00:51 34.00930 -118.29782 11338 ft 266 kts 58°
2026-05-07 00:52 34.01940 -118.27899 11813 ft 271 kts 53°
2026-05-07 00:52 34.03036 -118.26008 12265 ft 278 kts 53°
2026-05-07 00:52 34.03778 -118.24730 12574 ft 282 kts 53°
2026-05-07 00:52 34.04904 -118.22775 13060 ft 288 kts 53°
2026-05-07 00:53 34.06050 -118.20771 13530 ft 294 kts 53°
2026-05-07 00:53 34.07218 -118.18720 14026 ft 299 kts 53°
2026-05-07 00:53 34.08403 -118.16634 14516 ft 304 kts 54°
2026-05-07 00:53 34.09607 -118.14506 14967 ft 310 kts 54°
2026-05-07 00:54 34.10835 -118.12323 15432 ft 318 kts 54°
2026-05-07 00:54 34.12092 -118.10106 15898 ft 324 kts 54°
2026-05-07 00:54 34.13376 -118.07841 16311 ft 330 kts 54°
2026-05-07 00:54 34.14678 -118.05527 16707 ft 337 kts 54°
2026-05-07 00:55 34.16037 -118.03117 17084 ft 344 kts 54°
2026-05-07 00:55 34.17388 -118.00714 17444 ft 351 kts 54°
2026-05-07 00:55 34.18761 -117.98272 17790 ft 358 kts 54°
2026-05-07 00:55 34.20178 -117.95753 18137 ft 365 kts 54°
2026-05-07 00:56 34.21616 -117.93190 18514 ft 371 kts 54°
2026-05-07 00:56 34.23076 -117.90590 18895 ft 376 kts 54°
2026-05-07 00:56 34.24553 -117.87951 19281 ft 381 kts 54°
2026-05-07 00:56 34.26036 -117.85309 19664 ft 386 kts 54°
2026-05-07 00:57 34.27575 -117.82565 19910 ft 395 kts 54°
2026-05-07 00:57 34.29124 -117.79800 20055 ft 405 kts 54°
2026-05-07 00:57 34.30749 -117.76897 20251 ft 415 kts 54°
2026-05-07 00:57 34.32376 -117.73986 20600 ft 420 kts 54°
2026-05-07 00:58 34.33993 -117.71104 21003 ft 423 kts 53°
2026-05-07 00:58 34.35697 -117.68186 21399 ft 426 kts 53°
2026-05-07 00:58 34.37411 -117.65285 21748 ft 431 kts 53°
2026-05-07 00:58 34.39178 -117.62314 22068 ft 435 kts 53°
2026-05-07 00:59 34.42721 -117.56367 22824 ft 440 kts 53°
2026-05-07 00:59 34.44537 -117.53320 23225 ft 442 kts 53°
2026-05-07 00:59 34.46152 -117.50606 23464 ft 447 kts 53°
2026-05-07 01:00 34.48002 -117.47498 23707 ft 452 kts 53°
2026-05-07 01:00 34.49843 -117.44404 24077 ft 453 kts 53°
2026-05-07 01:00 34.51677 -117.41319 24444 ft 455 kts 53°
2026-05-07 01:00 34.53544 -117.38174 24887 ft 455 kts 53°
2026-05-07 01:01 34.55386 -117.35066 25261 ft 456 kts 53°
2026-05-07 01:01 34.57223 -117.31965 25615 ft 458 kts 53°
2026-05-07 01:01 34.59072 -117.28842 25955 ft 460 kts 53°
2026-05-07 01:01 34.60965 -117.25642 26300 ft 462 kts 53°
2026-05-07 01:02 34.62857 -117.22442 26649 ft 464 kts 53°
2026-05-07 01:02 34.64731 -117.19269 26958 ft 466 kts 53°
2026-05-07 01:02 34.66622 -117.16062 27348 ft 466 kts 53°
2026-05-07 01:02 34.68497 -117.12878 27851 ft 464 kts 53°
2026-05-07 01:03 34.70388 -117.09666 28308 ft 463 kts 53°
2026-05-07 01:03 34.72279 -117.06451 28741 ft 463 kts 53°
2026-05-07 01:03 34.74150 -117.03269 29132 ft 463 kts 53°
2026-05-07 01:03 34.76018 -117.00088 29510 ft 464 kts 53°
2026-05-07 01:04 34.77904 -116.96873 29872 ft 465 kts 53°
2026-05-07 01:04 34.79765 -116.93699 30198 ft 466 kts 53°
2026-05-07 01:04 34.81650 -116.90481 30508 ft 468 kts 53°
2026-05-07 01:04 34.83525 -116.87278 30826 ft 469 kts 53°
2026-05-07 01:05 34.85429 -116.84021 31140 ft 471 kts 53°
2026-05-07 01:05 34.87335 -116.80756 31454 ft 472 kts 53°
2026-05-07 01:05 34.89226 -116.77516 31765 ft 474 kts 53°
2026-05-07 01:05 34.91146 -116.74241 32065 ft 475 kts 51°
2026-05-07 01:06 34.93252 -116.71132 32382 ft 475 kts 47°
2026-05-07 01:06 34.95447 -116.68159 32721 ft 474 kts 45°
2026-05-07 01:06 34.97724 -116.65165 33023 ft 476 kts 45°
2026-05-07 01:06 34.99965 -116.62239 33303 ft 477 kts 44°
2026-05-07 01:07 35.02256 -116.59242 33611 ft 478 kts 44°
2026-05-07 01:07 35.04520 -116.56271 33897 ft 479 kts 44°
2026-05-07 01:07 35.06749 -116.53339 34152 ft 481 kts 44°
2026-05-07 01:07 35.09034 -116.50326 34415 ft 482 kts 44°
2026-05-07 01:08 35.11324 -116.47301 34681 ft 484 kts 44°
2026-05-07 01:08 35.13604 -116.44286 34988 ft 484 kts 44°
2026-05-07 01:08 35.15902 -116.41241 35234 ft 487 kts 43°
2026-05-07 01:08 35.18192 -116.38202 35426 ft 490 kts 43°
2026-05-07 01:09 35.20505 -116.35133 35685 ft 491 kts 43°
2026-05-07 01:09 35.22811 -116.32071 35928 ft 493 kts 43°
2026-05-07 01:09 35.25136 -116.28981 36160 ft 494 kts 43°
2026-05-07 01:09 35.27471 -116.25874 36414 ft 495 kts 43°
2026-05-07 01:10 35.29786 -116.22792 36671 ft 496 kts 44°
2026-05-07 01:10 35.32132 -116.19664 36933 ft 496 kts 44°
2026-05-07 01:10 35.34471 -116.16541 37089 ft 498 kts 44°
2026-05-07 01:11 35.39159 -116.10276 37036 ft 497 kts 44°
2026-05-07 01:11 35.43766 -116.04103 36978 ft 487 kts 44°
2026-05-07 01:12 35.48316 -115.97999 36985 ft 485 kts 44°
2026-05-07 01:12 35.52881 -115.91869 37023 ft 484 kts 44°
2026-05-07 01:13 35.57306 -115.85906 37034 ft 467 kts 44°
2026-05-07 01:13 35.61679 -115.80003 37007 ft 468 kts 44°
2026-05-07 01:14 35.66108 -115.73970 37039 ft 477 kts 44°
2026-05-07 01:14 35.70544 -115.67883 37077 ft 485 kts 44°
2026-05-07 01:15 35.75067 -115.61657 37080 ft 493 kts 44°
2026-05-07 01:15 35.79648 -115.55336 37054 ft 499 kts 44°
2026-05-07 01:16 35.84310 -115.48891 37028 ft 501 kts 45°
2026-05-07 01:16 35.88935 -115.42483 36795 ft 500 kts 44°
2026-05-07 01:16 35.90882 -115.39782 36607 ft 498 kts 44°
2026-05-07 01:17 35.93190 -115.36578 36381 ft 494 kts 44°
2026-05-07 01:17 35.95483 -115.33392 36158 ft 489 kts 45°
2026-05-07 01:17 35.97703 -115.30303 35932 ft 484 kts 45°
2026-05-07 01:17 35.99962 -115.27159 35685 ft 481 kts 45°
2026-05-07 01:18 36.02142 -115.24124 35444 ft 477 kts 45°
2026-05-07 01:18 36.04344 -115.21054 35197 ft 472 kts 45°
2026-05-07 01:18 36.06498 -115.18050 34950 ft 467 kts 45°
2026-05-07 01:18 36.08785 -115.15158 34696 ft 463 kts 40°
2026-05-07 01:19 36.11147 -115.12497 34462 ft 463 kts 39°
2026-05-07 01:19 36.13584 -115.09873 34214 ft 464 kts 38°
2026-05-07 01:19 36.16046 -115.07252 33962 ft 465 kts 38°
2026-05-07 01:19 36.18486 -115.04650 33713 ft 465 kts 39°
2026-05-07 01:20 36.20925 -115.02038 33466 ft 464 kts 39°
2026-05-07 01:20 36.23356 -114.99428 33218 ft 462 kts 40°
2026-05-07 01:20 36.25780 -114.96816 32994 ft 461 kts 40°
2026-05-07 01:20 36.28201 -114.94200 32863 ft 460 kts 40°
2026-05-07 01:21 36.30610 -114.91593 32873 ft 462 kts 40°
2026-05-07 01:21 36.35500 -114.86294 32992 ft 469 kts 40°
2026-05-07 01:22 36.40410 -114.80965 33026 ft 472 kts 40°
2026-05-07 01:22 36.45364 -114.75584 32994 ft 475 kts 40°
2026-05-07 01:23 36.50273 -114.70240 32952 ft 476 kts 40°
2026-05-07 01:23 36.55150 -114.64923 32940 ft 477 kts 40°
2026-05-07 01:24 36.60144 -114.59468 32949 ft 477 kts 40°
2026-05-07 01:24 36.65143 -114.53999 32978 ft 478 kts 40°
2026-05-07 01:25 36.70167 -114.48506 32993 ft 479 kts 38°
2026-05-07 01:25 36.75660 -114.43761 33015 ft 482 kts 31°
2026-05-07 01:26 36.81368 -114.39343 33021 ft 482 kts 31°
2026-05-07 01:26 36.87763 -114.34378 33026 ft 483 kts 31°
2026-05-07 01:27 36.99179 -114.25402 33023 ft 484 kts 31°
2026-05-07 01:27 37.10546 -114.16426 33064 ft 485 kts 31°
2026-05-07 01:28 37.21867 -114.07431 33094 ft 482 kts 31°
2026-05-07 01:28 37.33167 -113.98455 33065 ft 485 kts 31°
2026-05-07 01:29 37.44504 -113.89394 33055 ft 483 kts 31°
2026-05-07 01:29 37.55854 -113.80296 33077 ft 484 kts 31°
2026-05-07 01:30 37.67236 -113.71142 33110 ft 486 kts 31°
2026-05-07 01:30 37.78618 -113.61948 33152 ft 488 kts 31°
2026-05-07 01:31 37.89736 -113.52937 33170 ft 487 kts 31°
2026-05-07 01:31 37.99674 -113.45484 33215 ft 485 kts 28°
2026-05-07 01:32 38.05545 -113.41307 33208 ft 485 kts 28°
2026-05-07 01:32 38.11435 -113.37109 33182 ft 484 kts 28°
2026-05-07 01:33 38.17307 -113.32911 33173 ft 482 kts 28°
2026-05-07 01:33 38.23143 -113.28728 33196 ft 479 kts 28°
2026-05-07 01:34 38.28941 -113.24565 33210 ft 479 kts 28°
2026-05-07 01:34 38.34751 -113.20386 33211 ft 478 kts 28°
2026-05-07 01:35 38.39574 -113.16911 33198 ft 478 kts 28°
2026-05-07 01:35 38.46304 -113.12052 33192 ft 477 kts 28°
2026-05-07 01:36 38.51118 -113.08571 33197 ft 477 kts 28°
2026-05-07 01:36 38.56900 -113.04383 33209 ft 477 kts 28°
2026-05-07 01:37 38.62681 -113.00186 33213 ft 477 kts 28°
2026-05-07 01:37 38.68461 -112.95983 33197 ft 477 kts 28°
2026-05-07 01:38 38.74214 -112.91791 33187 ft 477 kts 28°
2026-05-07 01:38 38.79979 -112.87582 33202 ft 478 kts 28°
2026-05-07 01:39 38.85771 -112.83347 33212 ft 478 kts 28°
2026-05-07 01:39 38.91561 -112.79105 33205 ft 478 kts 28°
2026-05-07 01:40 38.97311 -112.74884 33195 ft 478 kts 28°
2026-05-07 01:40 39.03091 -112.70633 33195 ft 478 kts 28°
2026-05-07 01:41 39.08865 -112.66377 33207 ft 477 kts 28°
2026-05-07 01:41 39.14598 -112.62145 33214 ft 477 kts 28°
2026-05-07 01:42 39.20372 -112.57874 33198 ft 477 kts 28°
2026-05-07 01:42 39.26111 -112.53619 33188 ft 477 kts 28°
2026-05-07 01:43 39.31682 -112.48951 33204 ft 476 kts 32°
2026-05-07 01:43 39.37110 -112.44075 33202 ft 476 kts 32°
2026-05-07 01:44 39.42510 -112.39078 33197 ft 475 kts 33°
2026-05-07 01:44 39.47862 -112.34076 33225 ft 476 kts 33°
2026-05-07 01:45 39.53230 -112.29036 33199 ft 476 kts 33°
2026-05-07 01:45 39.58511 -112.24067 33189 ft 475 kts 33°
2026-05-07 01:46 39.63926 -112.18963 33189 ft 476 kts 33°
2026-05-07 01:46 39.69281 -112.13905 33203 ft 476 kts 33°
2026-05-07 01:47 39.74624 -112.08848 33211 ft 476 kts 33°
2026-05-07 01:47 39.80013 -112.03738 33204 ft 477 kts 33°
2026-05-07 01:48 39.85341 -111.98676 33190 ft 475 kts 33°
2026-05-07 01:48 39.90643 -111.93628 33181 ft 475 kts 33°
2026-05-07 01:49 39.95935 -111.88581 33193 ft 475 kts 33°
2026-05-07 01:49 40.01195 -111.83554 33208 ft 475 kts 33°
2026-05-07 01:50 40.06508 -111.78465 33212 ft 475 kts 33°
2026-05-07 01:50 40.11781 -111.73405 33200 ft 474 kts 33°
2026-05-07 01:51 40.15704 -111.69634 33188 ft 474 kts 33°
2026-05-07 01:51 40.19747 -111.65748 33177 ft 473 kts 34°
2026-05-07 01:52 40.23350 -111.62274 33175 ft 473 kts 34°
2026-05-07 01:52 40.27924 -111.57855 33178 ft 474 kts 34°
2026-05-07 01:53 40.32965 -111.52986 33189 ft 473 kts 34°
2026-05-07 01:53 40.38078 -111.48021 33203 ft 474 kts 34°
2026-05-07 01:54 40.43173 -111.43063 33218 ft 473 kts 33°
2026-05-07 01:54 40.48422 -111.37960 33222 ft 474 kts 33°
2026-05-07 01:55 40.53479 -111.33031 33222 ft 474 kts 33°
2026-05-07 01:55 40.58067 -111.28557 33214 ft 475 kts 33°
2026-05-07 01:56 40.80049 -111.07135 33143 ft 472 kts 31°
2026-05-07 01:56 40.84691 -111.02596 33198 ft 474 kts 34°
2026-05-07 01:57 40.89882 -110.97333 33210 ft 473 kts 34°
2026-05-07 01:57 40.95160 -110.92058 33220 ft 473 kts 34°
2026-05-07 01:58 41.00424 -110.86820 33227 ft 475 kts 33°
2026-05-07 01:58 41.05689 -110.81588 33237 ft 473 kts 34°
2026-05-07 01:59 41.10955 -110.76339 33228 ft 473 kts 34°
2026-05-07 01:59 41.16192 -110.71100 33215 ft 476 kts 33°
2026-05-07 02:00 41.21505 -110.65788 33214 ft 476 kts 33°
2026-05-07 02:00 41.26774 -110.60516 33228 ft 474 kts 34°
2026-05-07 02:01 41.32040 -110.55218 33234 ft 475 kts 33°
2026-05-07 02:01 41.37293 -110.49924 33217 ft 475 kts 33°
2026-05-07 02:02 41.42611 -110.44561 33205 ft 474 kts 33°
2026-05-07 02:02 41.47824 -110.39290 33203 ft 474 kts 33°
2026-05-07 02:03 41.53080 -110.33967 33215 ft 473 kts 34°
2026-05-07 02:03 41.58317 -110.28649 33220 ft 473 kts 34°
2026-05-07 02:04 41.63547 -110.23327 33209 ft 473 kts 34°
2026-05-07 02:04 41.68811 -110.17960 33194 ft 476 kts 34°
2026-05-07 02:05 41.74067 -110.12590 33196 ft 473 kts 34°
2026-05-07 02:05 41.79273 -110.07257 33207 ft 473 kts 34°
2026-05-07 02:06 41.84502 -110.01895 33207 ft 475 kts 34°
2026-05-07 02:06 41.89773 -109.96478 33193 ft 477 kts 34°
2026-05-07 02:07 41.95091 -109.90986 33187 ft 489 kts 32°
2026-05-07 02:07 42.03234 -109.82585 33147 ft 498 kts 32°
2026-05-07 02:08 42.08748 -109.76872 33129 ft 498 kts 33°
2026-05-07 02:08 42.14230 -109.71177 33141 ft 500 kts 33°
2026-05-07 02:09 42.19755 -109.65425 33155 ft 503 kts 33°
2026-05-07 02:09 42.25256 -109.59687 33164 ft 501 kts 33°
2026-05-07 02:10 42.30798 -109.53891 33149 ft 504 kts 32°
2026-05-07 02:10 42.36335 -109.48089 33132 ft 503 kts 32°
2026-05-07 02:11 42.41870 -109.42275 33119 ft 503 kts 32°
2026-05-07 02:11 42.47382 -109.36471 33105 ft 502 kts 32°
2026-05-07 02:12 42.52907 -109.30642 33092 ft 502 kts 32°
2026-05-07 02:12 42.58429 -109.24803 33096 ft 503 kts 32°
2026-05-07 02:13 42.63949 -109.18949 33107 ft 500 kts 32°
2026-05-07 02:13 42.69376 -109.13181 33085 ft 499 kts 32°
2026-05-07 02:14 42.74833 -109.07372 33057 ft 499 kts 32°
2026-05-07 02:14 42.79382 -109.02518 33045 ft 499 kts 32°
2026-05-07 02:15 42.84826 -108.96694 33036 ft 497 kts 32°
2026-05-07 02:15 42.91152 -108.89913 33023 ft 497 kts 32°
2026-05-07 02:16 42.95681 -108.85048 33022 ft 497 kts 32°
2026-05-07 02:16 43.01072 -108.79242 33024 ft 497 kts 32°
2026-05-07 02:17 43.06509 -108.73375 33039 ft 497 kts 32°
2026-05-07 02:17 43.11973 -108.67464 33038 ft 497 kts 32°
2026-05-07 02:18 43.17369 -108.61612 33024 ft 497 kts 32°
2026-05-07 02:18 43.22800 -108.55708 33015 ft 497 kts 33°
2026-05-07 02:19 43.28172 -108.49856 33019 ft 496 kts 33°